Wind_Speed
19 19 18 17 17 16 16 15 14 14 14 13 12 13 13 12 12 12 11 11 10 10 10 10 9 9 8 8 7 7 7 6 6 6 6 6 6 7 7 7 7 7 7
21 21 20 19 19 18 18 17 16 16 16 15 14 14 14 14 14 14 13 13 12 12 11 11 11 10 10 9 9 8 8 8 8 8 8 8 8 8 8 8 8 8 8
23 22 22 21 21 20 20 19 18 17 17 17 16 16 16 16 15 15 14 14 14 13 13 13 12 12 11 11 10 10 10 9 9 9 9 9 10 10 10 10 10 10 10
24 24 23 23 23 23 22 21 20 19 19 19 18 18 17 17 16 16 15 15 15 14 14 14 14 13 13 13 12 12 11 11 11 11 11 11 11 11 11 11 11 11 12
25 25 25 24 24 24 23 23 22 21 20 20 20 19 19 18 17 17 16 16 16 16 16 16 15 15 15 14 14 14 13 13 13 12 12 12 12 12 12 13 13 13 14
26 26 26 26 26 26 25 24 23 22 22 21 21 20 20 19 19 18 18 18 17 18 18 17 17 16 16 16 16 15 15 15 15 14 14 14 14 14 14 14 15 15 15
27 27 27 27 27 27 27 26 25 24 23 22 22 22 21 21 20 20 19 19 19 19 19 18 18 17 17 17 17 17 17 16 16 16 16 16 15 15 15 16 16 17 17
28 27 28 28 28 28 28 27 26 26 25 24 23 22 22 22 22 21 21 20 20 20 20 20 19 19 18 18 18 18 18 18 18 18 18 17 17 17 17 18 18 18 18
28 28 28 28 29 29 28 28 27 26 26 26 25 24 23 23 23 23 22 22 22 22 22 21 21 20 20 20 19 19 19 20 19 19 19 19 18 18 18 18 19 19 19
28 28 28 29 29 29 28 28 27 27 27 27 26 26 25 24 24 24 24 23 23 23 22 22 22 21 21 21 21 20 21 21 21 21 21 21 20 20 20 20 21 21 21
27 27 27 28 29 29 29 29 28 28 28 27 27 26 26 25 25 25 25 24 24 23 23 23 23 22 22 22 22 22 21 22 22 22 22 22 22 22 22 23 22 22 23
27 27 28 28 28 29 29 30 29 29 28 28 27 26 26 26 26 25 25 25 25 25 24 24 24 24 24 23 22 22 22 23 23 23 24 24 24 24 24 24 24 24 24
27 27 28 28 28 29 29 29 29 29 29 28 28 27 27 26 26 25 25 25 25 26 26 25 25 25 24 24 24 24 24 23 23 24 25 25 25 25 25 25 25 25 25
27 27 28 29 30 29 28 29 28 29 29 29 29 28 28 27 26 26 26 26 26 26 27 26 26 26 26 25 25 25 25 25 25 25 25 25 25 25 26 26 26 26 26
27 28 29 29 29 29 29 29 29 29 30 30 30 30 29 28 28 28 27 27 26 26 27 27 27 27 27 27 27 26 25 26 25 26 26 26 26 26 27 27 27 28 28
27 28 29 30 30 29 29 29 29 29 30 30 31 30 30 29 29 29 29 28 28 27 27 27 27 27 27 27 27 27 26 27 27 27 27 27 28 28 28 28 28 28 28
26 28 28 30 31 31 29 29 28 29 30 31 31 31 30 30 30 29 29 28 28 27 27 28 28 28 28 27 28 28 27 27 27 28 28 28 28 29 30 30 30 30 29
25 26 28 29 30 30 28 28 29 30 31 31 31 31 31 31 30 30 30 29 29 29 29 29 29 29 29 29 28 28 29 28 28 29 29 29 29 30 30 31 31 30 30
24 26 29 29 29 29 28 27 29 31 32 31 31 32 32 33 32 32 31 31 31 30 30 30 30 31 30 30 30 30 30 30 29 29 30 30 30 31 31 31 31 31 31
24 26 28 29 29 30 29 28 29 31 33 33 32 33 34 34 34 34 33 33 33 32 32 31 31 32 32 32 32 32 31 31 30 30 30 30 30 30 31 31 32 32 32
24 25 28 28 30 30 29 28 30 31 32 33 34 34 34 35 35 35 36 35 35 35 34 33 32 33 32 32 33 32 32 32 31 31 31 31 30 30 30 30 31 32 32
24 26 27 28 29 30 31 30 31 31 32 33 34 35 35 35 36 36 37 37 37 36 36 35 34 34 34 34 33 33 34 34 33 32 32 31 30 30 30 30 30 31 32
24 25 27 29 29 30 30 30 32 32 33 35 36 36 36 37 37 37 38 39 38 38 37 37 36 35 35 35 35 35 35 35 34 33 33 32 31 30 30 31 31 31 31
25 26 27 28 30 31 30 30 31 32 33 33 34 35 36 38 39 39 40 38 38 38 38 37 37 36 36 36 36 35 35 35 35 34 33 33 32 32 32 32 31 31 32
26 27 26 28 30 31 31 30 30 31 32 33 33 34 36 36 38 39 40 39 38 38 38 38 37 37 38 37 37 37 37 37 36 35 34 34 34 34 33 33 33 33 33
28 28 28 29 30 31 31 31 33 33 34 35 34 35 37 38 37 38 39 40 41 40 40 40 39 38 39 39 39 38 38 37 37 36 36 36 35 35 34 34 34 34 34
Wind_Direction
237 237 234 231 230 229 230 231 231 230 230 231 233 231 229 227 227 228 230 231 232 231 230 229 228 231 233 234 236 239 243 246 251 256 262 267 274 282 287 292 296 297 299
238 237 236 232 231 230 230 231 231 231 231 233 236 234 233 232 232 232 233 235 236 237 237 237 237 237 238 240 241 244 248 252 255 258 264 269 274 280 284 288 291 294 297
239 239 237 235 232 231 230 230 231 233 234 235 236 236 235 234 234 234 235 237 239 240 241 242 242 242 242 243 244 248 252 256 258 261 266 270 274 278 282 284 285 289 293
240 240 238 237 234 232 231 232 233 234 235 235 235 236 235 235 235 236 237 239 242 244 244 245 246 246 246 246 247 249 253 256 259 263 267 271 275 278 281 282 283 284 288
240 239 238 237 236 234 233 232 234 235 236 236 235 236 236 237 238 240 241 242 244 246 248 248 248 249 249 249 250 251 254 258 260 264 268 271 275 279 280 281 281 282 285
238 239 237 235 235 235 234 232 232 234 236 236 236 236 238 240 241 243 244 246 247 248 249 249 249 250 251 251 252 253 256 260 262 264 268 271 275 278 279 280 281 281 283
239 238 237 235 234 234 234 233 231 233 236 236 235 236 240 242 243 244 245 248 249 249 250 250 249 249 251 252 253 255 258 261 262 265 268 270 273 276 279 281 282 282 282
238 236 234 234 234 232 232 232 230 232 235 235 235 237 240 243 244 245 246 248 250 250 249 249 250 251 252 254 255 256 259 261 264 266 268 270 272 276 279 280 282 283 284
234 232 232 233 233 232 231 230 230 231 233 236 238 239 241 243 244 245 247 248 249 250 250 250 250 251 253 256 257 259 260 262 263 265 267 270 272 275 277 280 282 284 285
234 232 232 232 232 233 231 230 229 230 232 235 239 239 242 243 245 245 246 248 249 251 250 249 250 252 254 256 258 260 262 263 264 265 268 270 272 275 277 280 282 284 286
233 232 231 231 231 233 233 230 230 230 233 236 239 241 242 243 245 246 246 246 248 250 250 249 250 252 255 257 258 260 262 263 264 265 268 270 272 275 277 280 281 283 285
234 232 231 231 232 232 230 229 229 231 233 236 238 241 243 243 245 246 246 246 247 248 250 250 250 253 255 257 259 260 262 264 265 267 269 271 273 274 276 279 280 281 283
233 232 229 230 231 231 229 229 229 231 233 236 238 240 242 243 243 244 245 247 248 249 251 251 249 252 255 257 260 261 263 266 268 270 270 271 272 273 274 277 279 281 282
233 232 230 231 231 230 230 229 229 231 234 237 238 239 242 243 243 245 246 247 248 249 250 251 251 252 255 258 260 263 264 266 268 270 271 272 272 272 273 275 277 279 282
234 232 230 231 230 229 229 229 231 232 234 237 237 239 240 242 244 246 246 247 248 249 250 251 253 254 256 258 260 263 265 265 267 269 271 272 273 274 275 275 276 278 280
235 232 232 231 231 232 232 233 233 232 233 235 237 238 240 242 245 248 248 249 248 249 250 251 253 255 257 259 261 264 267 267 268 269 271 273 274 275 276 277 278 278 279
234 231 230 230 233 234 233 233 232 232 233 234 236 238 240 242 245 247 247 248 247 248 250 252 254 255 257 259 261 262 266 268 270 271 272 274 276 276 277 277 278 277 277
236 233 230 231 233 234 233 235 234 234 236 237 238 239 240 242 244 245 247 247 248 248 250 253 255 256 257 258 261 263 265 268 272 273 274 275 276 277 277 278 277 276 275
236 234 232 234 235 234 236 239 238 237 237 239 240 241 242 242 244 244 245 247 248 249 251 254 256 257 258 260 261 263 264 267 271 272 274 275 276 277 278 278 277 276 276
236 236 235 237 238 237 239 240 238 239 239 240 242 243 244 243 244 245 246 247 249 250 252 254 256 257 258 261 262 263 264 267 270 272 274 275 277 279 280 278 277 276 276
239 239 237 239 238 238 242 243 241 243 242 241 242 243 244 245 246 246 247 248 248 250 252 254 256 258 259 261 263 265 265 267 269 271 273 275 278 279 280 279 278 277 276
243 244 240 240 240 241 243 244 245 246 245 246 245 243 244 245 246 246 247 248 249 250 252 254 255 258 259 261 263 266 267 268 269 270 272 274 276 278 277 277 279 278 277
246 247 244 242 243 243 244 246 248 249 249 246 246 244 244 245 246 247 247 248 248 250 252 254 256 257 259 260 263 265 267 268 270 271 271 272 274 276 276 277 278 277 277
246 248 247 246 246 246 248 250 249 251 250 247 247 247 247 247 247 248 247 248 249 251 252 254 256 257 258 260 261 264 266 267 269 270 270 272 274 275 276 276 276 278 278
250 251 249 248 249 250 251 251 250 250 249 249 249 248 248 248 248 248 248 248 249 251 252 254 256 258 259 260 261 264 266 267 268 269 269 270 273 275 276 276 276 277 278
252 254 252 250 251 251 252 253 251 250 249 251 251 251 250 250 250 250 250 250 251 253 255 255 257 258 260 260 262 264 266 267 268 269 269 270 271 273 274 275 275 276 277
Height
5847 5849 5851 5852 5854 5855 5856 5858 5859 5860 5862 5863 5864 5865 5866 5867 5868 5869 5870 5871 5871 5872 5873 5873 5873 5874 5874 5875 5875 5875 5875 5875 5875 5875 5875 5875 5875 5875 5874 5874 5873 5873 5872
5844 5845 5847 5849 5850 5852 5854 5855 5857 5858 5859 5861 5862 5863 5864 5865 5866 5867 5868 5869 5870 5870 5871 5872 5872 5872 5873 5873 5873 5874 5874 5874 5874 5874 5874 5874 5874 5873 5873 5872 5872 5871 5871
5840 5842 5843 5845 5847 5848 5850 5852 5854 5855 5857 5858 5859 5861 5862 5863 5864 5865 5866 5867 5868 5868 5869 5870 5870 5871 5871 5871 5872 5872 5872 5872 5872 5872 5872 5872 5872 5872 5871 5871 5870 5870 5869
5835 5837 5839 5841 5843 5845 5846 5849 5850 5852 5854 5855 5856 5858 5859 5860 5861 5862 5863 5864 5865 5866 5867 5867 5868 5868 5869 5869 5870 5870 5870 5870 5870 5870 5870 5870 5870 5869 5869 5868 5868 5867 5867
5830 5832 5834 5836 5838 5840 5842 5844 5846 5848 5850 5852 5853 5855 5856 5857 5859 5860 5861 5862 5862 5863 5864 5864 5865 5866 5866 5867 5867 5867 5868 5868 5868 5868 5868 5868 5867 5867 5866 5866 5866 5865 5864
5823 5826 5828 5830 5833 5835 5837 5840 5842 5844 5846 5848 5850 5851 5853 5854 5855 5856 5858 5858 5859 5860 5861 5861 5862 5863 5863 5864 5864 5865 5865 5865 5865 5865 5865 5865 5865 5865 5864 5863 5863 5862 5861
5817 5819 5822 5824 5827 5829 5832 5835 5837 5840 5842 5844 5846 5847 5849 5850 5852 5853 5854 5855 5856 5856 5857 5858 5859 5859 5860 5861 5861 5862 5862 5862 5862 5862 5862 5862 5862 5862 5861 5860 5860 5859 5858
5809 5812 5815 5818 5820 5823 5826 5829 5832 5835 5837 5839 5841 5843 5845 5846 5848 5849 5850 5851 5852 5853 5853 5854 5855 5856 5857 5857 5858 5858 5859 5859 5859 5859 5859 5859 5859 5858 5858 5857 5856 5855 5855
5802 5804 5807 5810 5814 5817 5820 5823 5826 5829 5832 5834 5836 5838 5840 5842 5843 5844 5845 5846 5847 5848 5849 5850 5851 5852 5853 5854 5854 5855 5855 5855 5856 5856 5855 5855 5855 5854 5854 5853 5852 5852 5851
5795 5798 5801 5804 5807 5811 5814 5818 5821 5824 5827 5829 5831 5833 5835 5836 5838 5839 5840 5842 5843 5844 5845 5846 5847 5848 5849 5850 5850 5851 5851 5851 5852 5852 5852 5851 5851 5850 5850 5849 5848 5848 5847
5788 5791 5794 5797 5801 5804 5808 5811 5815 5818 5821 5823 5825 5828 5830 5831 5832 5834 5835 5837 5838 5839 5840 5842 5843 5844 5845 5846 5846 5847 5847 5847 5847 5847 5847 5847 5847 5846 5846 5845 5844 5843 5842
5781 5785 5788 5791 5795 5798 5802 5805 5809 5812 5815 5818 5820 5822 5824 5826 5827 5828 5830 5831 5833 5834 5835 5837 5838 5839 5840 5841 5842 5842 5842 5843 5843 5843 5843 5842 5842 5841 5841 5840 5839 5839 5838
5775 5779 5782 5786 5789 5793 5796 5799 5803 5806 5810 5812 5815 5817 5819 5820 5822 5823 5825 5826 5828 5829 5831 5832 5833 5834 5836 5836 5837 5837 5838 5838 5838 5838 5838 5837 5837 5836 5835 5835 5834 5834 5833
5769 5773 5776 5780 5783 5787 5790 5793 5797 5801 5804 5807 5809 5812 5813 5815 5817 5818 5820 5821 5823 5824 5825 5827 5828 5829 5831 5832 5832 5832 5833 5833 5833 5832 5832 5832 5831 5831 5830 5829 5829 5828 5828
5763 5767 5771 5774 5777 5780 5784 5787 5791 5795 5798 5801 5803 5806 5808 5810 5811 5813 5814 5816 5817 5818 5820 5822 5823 5824 5825 5826 5827 5827 5827 5827 5827 5827 5826 5826 5825 5825 5824 5824 5823 5823 5822
5758 5761 5765 5768 5772 5775 5778 5782 5785 5789 5792 5795 5797 5799 5802 5804 5805 5807 5809 5810 5812 5813 5814 5816 5817 5819 5820 5821 5821 5822 5822 5821 5821 5821 5820 5820 5819 5819 5818 5818 5817 5817 5816
5752 5755 5759 5763 5766 5770 5773 5776 5779 5783 5785 5788 5790 5793 5795 5798 5799 5801 5803 5804 5806 5807 5809 5810 5812 5813 5814 5815 5816 5816 5816 5815 5815 5815 5814 5814 5813 5813 5812 5811 5811 5810 5810
5746 5749 5753 5757 5761 5764 5768 5770 5774 5777 5779 5782 5784 5786 5789 5791 5793 5795 5797 5798 5800 5802 5803 5805 5806 5807 5808 5809 5810 5810 5810 5809 5809 5809 5808 5808 5807 5806 5805 5805 5804 5804 5803
5741 5744 5748 5752 5756 5759 5763 5765 5767 5770 5773 5775 5777 5780 5782 5784 5787 5788 5790 5792 5794 5796 5797 5799 5800 5801 5802 5803 5803 5803 5803 5803 5803 5802 5802 5801 5800 5799 5799 5798 5797 5797 5796
5738 5740 5744 5747 5750 5754 5757 5759 5761 5763 5766 5768 5770 5773 5775 5777 5779 5781 5783 5785 5787 5789 5790 5792 5793 5794 5795 5796 5796 5796 5796 5796 5796 5796 5795 5794 5793 5792 5792 5791 5790 5789 5789
5734 5737 5739 5742 5744 5747 5750 5752 5755 5757 5759 5761 5763 5765 5767 5770 5772 5774 5776 5778 5780 5782 5783 5785 5786 5787 5788 5788 5789 5789 5789 5789 5789 5789 5788 5788 5787 5786 5785 5784 5783 5782 5782
5729 5731 5734 5736 5738 5741 5744 5746 5748 5750 5752 5754 5756 5758 5760 5762 5763 5765 5768 5770 5772 5774 5776 5777 5779 5780 5780 5781 5782 5782 5782 5782 5781 5781 5781 5781 5780 5779 5778 5777 5776 5775 5774
5724 5726 5729 5732 5733 5736 5738 5739 5741 5743 5745 5746 5748 5750 5752 5754 5755 5757 5759 5761 5764 5766 5768 5769 5771 5772 5773 5774 5774 5775 5775 5775 5774 5774 5774 5774 5773 5772 5771 5770 5769 5768 5768
5720 5721 5723 5726 5728 5730 5732 5733 5735 5736 5738 5739 5741 5742 5744 5746 5747 5749 5751 5752 5755 5758 5760 5761 5762 5764 5765 5766 5767 5767 5767 5768 5768 5768 5767 5767 5766 5765 5764 5763 5762 5761 5761
5715 5717 5718 5720 5722 5724 5725 5726 5727 5728 5730 5731 5733 5734 5736 5737 5739 5740 5742 5744 5747 5749 5751 5752 5754 5755 5757 5758 5758 5759 5759 5759 5759 5760 5760 5760 5759 5758 5757 5756 5755 5755 5754
5709 5711 5712 5714 5715 5717 5717 5718 5719 5721 5722 5723 5725 5726 5727 5729 5730 5732 5734 5736 5738 5740 5742 5744 5745 5746 5748 5749 5750 5750 5751 5751 5751 5751 5752 5751 5751 5750 5749 5748 5748 5747 5746